Location: Unspecified
(49.2170°N, 0.0000°E)
Time: 11:36:46
(UTC+00:00)

Transit 4A - Pass Details

Date: 22 June 2019
Orbit: 862 x 982 km, 66.8° (Epoch: 19 July)

Event Time Altitude Azimuth Distance (km) Brightness Sun altitude
Rises 12:37:39 0° 303° (WNW) 3,687 11.0 63.3°
Reaches altitude 10° 12:41:25 10° 324° (NW) 2,745 10.3 63.1°
Maximum altitude 12:45:14 16° 1° (N) 2,332 9.9 62.9°
Drops below altitude 10° 12:49:03 10° 38° (NE) 2,739 10.2 62.6°
Sets 12:52:48 0° 59° (ENE) 3,674 10.8 62.4°
